Weather History for Mount Pleasant, MI

Change the Weather History Date:

Friday, May 24, 2013

  Actual Average (KAMN) Record (KAMN)
Temperature  
Mean Temperature 48 °F -  
Max Temperature 60 °F 72 °F 89 °F (1975)
Min Temperature 35 °F 48 °F 33 °F (1963)
Degree Days  
Heating Degree Days 18    
Moisture  
Dew Point 34 °F    
Average Humidity 65    
Maximum Humidity 90    
Minimum Humidity 33    
Precipitation  
Precipitation 0.00 in - - ()
Sea Level Pressure  
Sea Level Pressure 30.31 in    
Wind  
Wind Speed 4 mph (North)    
Max Wind Speed 13 mph    
Max Gust Speed -    
Visibility 10 miles    
Events      
Averages and records for this station are not official NWS values.
T = Trace of Precipitation, MM = Missing Value Source: NWS Daily Summary

Daily Weather History Graph

Daily Weather History Graph

Search for Another Location

Airport:

Trip Planner

Search our weather history database for the weather conditions in past years. The results will help you decide how hot, cold, wet, or windy it might be!

Date:

Astronomy

May. 24, 2013 Rise Set
Actual Time 6:05 AM EDT 9:06 PM EDT
Civil Twilight 5:31 AM EDT 9:41 PM EDT
Nautical Twilight 4:47 AM EDT 10:24 PM EDT
Astronomical Twilight 3:55 AM EDT 11:17 PM EDT
Moon 8:47 PM EDT (5/24) 5:38 AM EDT (5/24)
Length of Visible Light 16h 09m
Length of Day
15h 01m
Full, 100% of the Moon is Illuminated
May 24
Full
May 25
Full
May 31
Last Quarter
Jun 8
New
Jun 16
First Quarter

Hourly Weather History & Observations

Time (EDT) Temp. Windchill Dew Point Humidity Pressure Visibility Wind Dir Wind Speed Gust Speed Precip Events Conditions
12:15 AM 41.0 °F 36.4 °F 34.0 °F 76% 30.21 in 10.0 mi NNW 6.9 mph - N/A   Clear
12:35 AM 40.6 °F 36.7 °F 34.0 °F 77% 30.21 in 10.0 mi NNW 5.8 mph - N/A   Clear
12:55 AM 40.5 °F 37.3 °F 33.8 °F 77% 30.22 in 10.0 mi NNW 4.6 mph - N/A   Clear
1:15 AM 40.3 °F 35.5 °F 33.8 °F 78% 30.22 in 10.0 mi NW 6.9 mph - N/A   Clear
1:35 AM 39.9 °F 35.1 °F 33.4 °F 78% 30.22 in 10.0 mi NNW 6.9 mph - N/A   Clear
1:55 AM 39.6 °F 36.3 °F 33.4 °F 79% 30.23 in 10.0 mi NNW 4.6 mph - N/A   Clear
2:15 AM 39.4 °F 36.1 °F 33.3 °F 79% 30.23 in 10.0 mi North 4.6 mph - N/A   Clear
2:35 AM 39.0 °F 36.8 °F 33.3 °F 80% 30.23 in 10.0 mi North 3.5 mph - N/A   Clear
2:55 AM 38.5 °F - 33.3 °F 81% 30.23 in 10.0 mi Calm Calm - N/A   Clear
3:15 AM 38.3 °F 35.9 °F 33.6 °F 83% 30.24 in 10.0 mi NNW 3.5 mph - N/A   Clear
3:35 AM 37.8 °F - 33.3 °F 84% 30.25 in 10.0 mi Calm Calm - N/A   Clear
3:55 AM 37.6 °F - 33.3 °F 84% 30.26 in 10.0 mi Calm Calm - N/A   Clear
4:15 AM 37.4 °F 33.8 °F 33.3 °F 85% 30.26 in 10.0 mi NNW 4.6 mph - N/A   Clear
4:35 AM 37.4 °F - 33.3 °F 85% 30.27 in 10.0 mi Calm Calm - N/A   Clear
4:55 AM 36.9 °F 34.3 °F 33.1 °F 86% 30.27 in 10.0 mi NNW 3.5 mph - N/A   Clear
5:15 AM 36.5 °F 33.9 °F 33.1 °F 87% 30.27 in 10.0 mi NNW 3.5 mph - N/A   Clear
5:34 AM 36.5 °F - 32.9 °F 87% 30.28 in 10.0 mi Calm Calm - N/A   Clear
5:55 AM 36.0 °F 33.3 °F 32.9 °F 89% 30.28 in 10.0 mi North 3.5 mph - N/A   Clear
6:15 AM 35.6 °F - 32.9 °F 90% 30.29 in 10.0 mi Calm Calm - N/A   Clear
6:34 AM 35.6 °F - 32.9 °F 90% 30.30 in 10.0 mi Calm Calm - N/A   Clear
6:55 AM 36.3 °F - 32.9 °F 87% 30.31 in 10.0 mi Calm Calm - N/A   Clear
7:15 AM 37.4 °F 33.8 °F 33.1 °F 84% 30.31 in 10.0 mi North 4.6 mph - N/A   Clear
7:34 AM 38.3 °F 35.9 °F 32.7 °F 80% 30.32 in 10.0 mi North 3.5 mph - N/A   Clear
7:55 AM 39.2 °F 35.0 °F 32.0 °F 75% 30.32 in 10.0 mi North 5.8 mph - N/A   Clear
8:15 AM 39.9 °F 35.8 °F 32.2 °F 74% 30.33 in 10.0 mi North 5.8 mph - N/A   Clear
8:34 AM 40.6 °F 36.0 °F 32.0 °F 71% 30.34 in 10.0 mi NNW 6.9 mph - N/A   Scattered Clouds
8:55 AM 41.0 °F 34.7 °F 31.6 °F 69% 30.35 in 10.0 mi North 10.4 mph - N/A   Mostly Cloudy
9:15 AM 41.4 °F 34.3 °F 31.5 °F 68% 30.35 in 10.0 mi NNE 12.7 mph - N/A   Mostly Cloudy
9:34 AM 41.2 °F 35.5 °F 31.1 °F 67% 30.36 in 10.0 mi North 9.2 mph - N/A   Overcast
9:55 AM 42.1 °F 36.6 °F 31.3 °F 66% 30.37 in 10.0 mi NNW 9.2 mph - N/A   Mostly Cloudy
10:15 AM 42.8 °F 37.0 °F 32.0 °F 66% 30.36 in 10.0 mi NNW 10.4 mph - N/A   Mostly Cloudy
10:34 AM 45.0 °F 40.1 °F 33.3 °F 64% 30.37 in 10.0 mi NNE 9.2 mph - N/A   Mostly Cloudy
10:55 AM 43.2 °F 40.5 °F 31.8 °F 64% 30.37 in 10.0 mi NNW 4.6 mph - N/A   Mostly Cloudy
11:15 AM 44.2 °F 42.7 °F 32.5 °F 63% 30.37 in 10.0 mi NW 3.5 mph - N/A   Mostly Cloudy
11:34 AM 46.0 °F 42.5 °F 32.9 °F 60% 30.36 in 10.0 mi NNE 6.9 mph - N/A   Mostly Cloudy
11:55 AM 46.4 °F 42.9 °F 32.7 °F 59% 30.37 in 10.0 mi North 6.9 mph - N/A   Clear
12:15 PM 46.8 °F - 34.2 °F 62% 30.37 in 10.0 mi Calm Calm - N/A   Scattered Clouds
12:34 PM 48.4 °F - 33.8 °F 57% 30.37 in 10.0 mi NNE 10.4 mph - N/A   Scattered Clouds
12:55 PM 49.5 °F - 34.9 °F 57% 30.37 in 10.0 mi North 8.1 mph - N/A   Clear
1:15 PM 50.5 °F - 36.0 °F 57% 30.37 in 10.0 mi NNW 4.6 mph - N/A   Clear
1:35 PM 50.9 °F - 35.2 °F 55% 30.37 in 10.0 mi North 3.5 mph - N/A   Clear
1:55 PM 52.0 °F - 35.6 °F 54% 30.36 in 10.0 mi North 6.9 mph - N/A   Clear
2:15 PM 53.8 °F - 37.0 °F 53% 30.36 in 10.0 mi North 4.6 mph - N/A   Clear
2:35 PM 53.6 °F - 35.2 °F 50% 30.35 in 10.0 mi North 3.5 mph - N/A   Clear
2:55 PM 54.9 °F - 35.4 °F 48% 30.34 in 10.0 mi WSW 4.6 mph - N/A   Clear
3:15 PM 55.8 °F - 37.0 °F 49% 30.35 in 10.0 mi NE 3.5 mph - N/A   Scattered Clouds
3:35 PM 57.0 °F - 35.1 °F 44% 30.34 in 10.0 mi Calm Calm - N/A   Scattered Clouds
3:55 PM 57.0 °F - 32.7 °F 40% 30.33 in 10.0 mi Calm Calm - N/A   Scattered Clouds
4:15 PM 58.3 °F - 35.2 °F 42% 30.33 in 10.0 mi WNW 8.1 mph - N/A   Clear
4:35 PM 57.7 °F - 34.7 °F 42% 30.33 in 10.0 mi North 4.6 mph - N/A   Clear
4:55 PM 59.4 °F - 34.2 °F 39% 30.32 in 10.0 mi NNW 3.5 mph - N/A   Clear
5:15 PM 59.2 °F - 33.3 °F 38% 30.32 in 10.0 mi NW 5.8 mph - N/A   Clear
5:35 PM 59.2 °F - 32.7 °F 37% 30.31 in 10.0 mi Calm Calm - N/A   Clear
5:55 PM 59.5 °F - 33.6 °F 38% 30.31 in 10.0 mi WNW 3.5 mph - N/A   Clear
6:14 PM 60.1 °F - 34.0 °F 38% 30.30 in 10.0 mi Calm Calm - N/A   Clear
6:35 PM 59.9 °F - 31.3 °F 34% 30.29 in 10.0 mi Calm Calm - N/A   Clear
6:55 PM 59.9 °F - 30.7 °F 33% 30.29 in 10.0 mi Calm Calm - N/A   Clear
7:14 PM 60.3 °F - 31.5 °F 34% 30.28 in 10.0 mi Calm Calm - N/A   Clear
7:35 PM 59.9 °F - 31.8 °F 35% 30.28 in 10.0 mi Calm Calm - N/A   Clear
7:55 PM 59.9 °F - 31.8 °F 35% 30.28 in 10.0 mi West 3.5 mph - N/A   Clear
8:14 PM 58.8 °F - 33.3 °F 38% 30.28 in 10.0 mi Calm Calm - N/A   Clear
8:35 PM 56.8 °F - 34.5 °F 43% 30.28 in 10.0 mi Calm Calm - N/A   Clear
8:55 PM 55.4 °F - 35.6 °F 47% 30.28 in 10.0 mi Calm Calm - N/A   Clear
9:15 PM 54.3 °F - 36.3 °F 51% 30.28 in 10.0 mi North 3.5 mph - N/A   Clear
9:35 PM 51.1 °F - 41.5 °F 70% 30.29 in 10.0 mi NE 4.6 mph - N/A   Clear
9:55 PM 49.3 °F - 42.1 °F 76% 30.30 in 10.0 mi ENE 4.6 mph - N/A   Clear
10:15 PM 47.8 °F - 41.7 °F 79% 30.31 in 10.0 mi ENE 4.6 mph - N/A   Clear
10:35 PM 46.4 °F 44.3 °F 41.0 °F 81% 30.33 in 10.0 mi ENE 4.6 mph - N/A   Clear
10:55 PM 45.3 °F - 39.9 °F 81% 30.34 in 10.0 mi Calm Calm - N/A   Clear
11:15 PM 44.6 °F - 39.9 °F 84% 30.34 in 10.0 mi Calm Calm - N/A   Clear
11:35 PM 44.1 °F 42.5 °F 40.1 °F 86% 30.35 in 10.0 mi NNE 3.5 mph - N/A   Clear
11:55 PM 43.7 °F - 39.7 °F 86% 30.36 in 10.0 mi Calm Calm - N/A   Clear